Regional Weather Roundup
Issued by NWS

Home | Current Version | Previous Version | Text Only | Print | Product List | Glossary On
Versions: 1 2 3 4 5 6 7 8 9 10 11 12 13 14 15 16 17 18 19 20 21 22 23 24 25 26 27 28 29 30 31 32 33 34 35 36 37 38 39 40 41 42 43 44 45 46 47 48 49 50
000
ASCA44 KEWX 200520
RWRMX

LATIN AMERICA AND CARIBBEAN REGIONAL WEATHER ROUNDUP
NATIONAL WEATHER SERVICE AUSTIN/SAN ANTONIO TX
1200 AM CDT WED AUG 20 2014

NOTE: "FAIR" INDICATED FEW OR NO CLOUDS BELOW 12,000 FEET WITH NO
SIGNIFICANT WEATHER AND/OR OBSTRUCTIONS TO VISIBILITY.

BAJA CALIFORNIA

CITY           SKY/WX    TMP DP  RH WIND       PRES   REMARKS
LA PAZ         PTCLDY    84  70  61 S6        29.91
MEXICALI       CLEAR     90  41  18 N10       29.71
S.J. DEL CABO    N/A    N/A N/A N/A MISG        N/A
TIJUANA        CLEAR     66  57  72 CALM      29.91S

NORTHWESTERN MEXICO

CITY           SKY/WX    TMP DP  RH WIND       PRES   REMARKS
CULIACAN       CLOUDY    86  73  66 CALM      29.88  HX  93
HERMOSILLO     CLEAR     86  70  58 SE8       29.89R HX  90
LOS MOCHIS       N/A    N/A N/A N/A MISG        N/A

NORTHEASTERN MEXICO

CITY           SKY/WX    TMP DP  RH WIND       PRES   REMARKS
CHIHUAHUA      LGT RAIN  66  63  88 SE3       30.10
MONTERREY      PTCLDY    84  66  54 E17       29.87R
REYNOSA        CLEAR     81  73  78 SE12      29.89
CD. VICTORIA   CLEAR     81  70  69 S14       29.91

WESTERN MEXICO

CITY           SKY/WX    TMP DP  RH WIND       PRES   REMARKS
AGUASCALIENTES CLEAR     59  55  88 SE7       30.25
DEL BAJIO      CLOUDY    63  57  82 CALM      30.29R
GUADALAJARA    CLOUDY    64  59  82 CALM      30.20
MAZATLAN       CLOUDY    75  72  88 W8        29.89R THUNDER
P. VALLARTA    CLOUDY    75  72  88 N8        29.91S
ZACATECAS      RAIN      59  52  77 W7        30.28F

CENTRAL MEXICO

CITY           SKY/WX    TMP DP  RH WIND       PRES   REMARKS
MEXICO CITY    MOCLDY    59  54  82 SW7       30.35S
MORELIA        MOCLDY    63  57  82 SW5       30.25
PUEBLA         CLOUDY    55  52  88 N6        30.37F
QUERETARO      MOCLDY    63  55  77 NE12      30.30R
S. LUIS POTOSI MOCLDY    66  57  72 E12       30.22R
TOLUCA         MOCLDY    54  48  82 CALM      30.41R

SOUTHERN MEXICO

CITY           SKY/WX    TMP DP  RH WIND       PRES   REMARKS
ACAPULCO       PTCLDY    86  77  74 N5        29.88R HX  97

YUCATAN PENINSULA

CITY           SKY/WX    TMP DP  RH WIND       PRES   REMARKS
CANCUN         PTCLDY    82  77  83 E5        30.00S HX  91
COZUMEL        PTCLDY    75  75 100 CALM      30.00S
MERIDA         MOCLDY    77  68  73 E13       29.95F
TAPACHULA      MOCLDY    81  75  83 CALM      29.88R
TUX. GUTIERREZ PTCLDY    73  68  83 CALM      29.95R
VILLAHERMOSA   CLEAR     79  68  69 E12       29.91R

CENTRAL AMERICA

CITY           SKY/WX    TMP DP  RH WIND       PRES   REMARKS
MANAGUA        PTCLDY    79  72  78 E9        29.86S

CARIBBEAN

CITY           SKY/WX    TMP DP  RH WIND       PRES   REMARKS
ARUBA          PTCLDY    82  77  83 E16       29.89S HX  91
CURACAO        PTCLDY    82  77  83 E12       29.92F HX  91
KINGSTON       PTCLDY    84  75  74 E6        29.94F HX  92
NASSAU         PTCLDY    84  75  74 CALM      30.05F HX  92
SAN JUAN       PTCLDY    81  77  89 CALM      29.99F
SANTO DOMINGO  PTCLDY    75  72  88 N5        29.97S
ST. CROIX      CLEAR     81  75  83 NE3       29.98F
ST. MAARTEN    PTCLDY    82  75  78 E12       29.97S
ST. THOMAS     CLEAR     81  75  83 E10       29.98

$$




USA.gov is the U.S. government's official web portal to all federal, state and local government web resources and services.